カタログに戻る

OTTER

運用中科学SSO
NORAD 62623·PAYLOAD·🇺🇸 United States

打ち上げ Jan 14, 2025 から Vandenberg Space Force Base

Loading…

次のパス (今後24時間)

TLE

最新Source: Space-Track

元期: Sep 13, 2026, 04:48 UTC

1 62623U 25009Q   26256.20067900  .00006631  00000-0  22166-3 0  9996
2 62623  97.3984 338.0947 0004538  17.1725 342.9669 15.31331374 92380

AllMySatでOTTERをリアルタイム追跡

Download on the App Store